This demonstration page uses our WeatherBlox Daily Observations layout. Learn more.

39.29038, -76.61219

Hourly Observations for October 20, 2019

Temp ( °F °C ) Dew Point ( °F °C ) Humidity (%) Winds ( mph kmh ) Pressure ( in mb ) Visibility ( mi km ) Precip ( " mm )
12:54 am 00:54 undefined 56 13.3 48 8.9 75 75 undefined N/A 30.01 1016 N/A 0 0
1:54 am 01:54 undefined 56 13.3 48 8.9 75 75 undefined N/A 30.01 1016 N/A 0 0
2:54 am 02:54 undefined 56 13.3 49 9.4 77 77 undefined N/A 29.98 1015 N/A 0 0
3:54 am 03:54 undefined 56 13.3 50 10 81 81 undefined N/A 29.96 1015 N/A 0 0
4:54 am 04:54 undefined 56 13.3 50 10 81 81 undefined N/A 29.96 1014 N/A 0 0
5:54 am 05:54 undefined 56 13.3 49 9.4 77 77 undefined N/A 29.97 1015 N/A 0 0
6:54 am 06:54 undefined 55 12.8 51 10.6 87 87 undefined N/A 29.99 1016 N/A 0.05 1.27
7:54 am 07:54 undefined 54 12.2 51 10.6 90 90 undefined N/A 29.99 1016 N/A 0.09 2.286
8:54 am 08:54 undefined 54 12.2 52 11.1 93 93 undefined N/A 29.99 1016 N/A 0.03 0.762
9:54 am 09:54 undefined 54 12.2 52 11.1 93 93 undefined N/A 29.99 1016 N/A 0.02 0.508
10:54 am 10:54 undefined 54 12.2 52 11.1 93 93 undefined N/A 29.99 1016 N/A 0.17 4.318
11:54 am 11:54 undefined 55 12.8 52 11.1 90 90 undefined N/A 29.98 1015 N/A 0.09 2.286
12:54 pm 12:54 undefined 56 13.3 53 11.7 90 90 undefined N/A 29.94 1014 N/A 0.08 2.032
1:54 pm 13:54 undefined 56 13.3 53 11.7 90 90 undefined N/A 29.9 1013 N/A 0.1 2.54
2:54 pm 14:54 undefined 57 13.9 54 12.2 90 90 undefined N/A 29.88 1012 N/A 0.15 3.81
3:54 pm 15:54 undefined 56 13.3 54 12.2 93 93 undefined N/A 29.88 1012 N/A 0.17 4.318
4:54 pm 16:54 undefined 57 13.9 54 12.2 90 90 undefined N/A 29.89 1012 N/A 0.08 2.032
5:54 pm 17:54 undefined 57 13.9 54 12.2 90 90 undefined N/A 29.9 1012 N/A 0.09 2.286
6:54 pm 18:54 undefined 56 13.3 53 11.7 90 90 undefined N/A 29.91 1013 N/A 0 0
7:54 pm 19:54 undefined 56 13.3 53 11.7 90 90 undefined N/A 29.92 1013 N/A 0.02 0.508
8:54 pm 20:54 undefined 56 13.3 52 11.1 87 87 undefined N/A 29.94 1014 N/A 0 0
9:54 pm 21:54 undefined 56 13.3 52 11.1 87 87 undefined N/A 29.96 1015 N/A 0 0
10:54 pm 22:54 undefined 56 13.3 52 11.1 87 87 undefined N/A 29.97 1015 N/A 0 0
11:54 pm 23:54 undefined 56 13.3 51 10.6 84 84 undefined N/A 29.96 1015 N/A 0 0

Powered by AerisWeather